FW8116 Weather Reports


Display with metric or nautical units.
time (UTC)temp
F
wind
direction
speed
MPH
gust
MPH
rain 1hr
in
rain 24hr
in
rain mn
in
humidity
%
barometer
mb
20260505153029 73 157 1.0 10.0 0.00 0.00 0.00 57 1017.2
20260505152515 73 149 1.0 6.0 0.00 0.00 0.00 58 1017.2
20260505152018 73 248 2.0 7.0 0.00 0.00 0.00 58 1017.2
20260505151530 72 265 1.0 8.0 0.00 0.00 0.00 61 1017.3
20260505151012 72 127 1.0 8.0 0.00 0.00 0.00 59 1017.4
20260505150515 72 346 1.0 7.0 0.00 0.00 0.00 62 1017.4
20260505140512 67 178 1.0 7.0 0.00 0.00 0.00 67 1016.9
20260505125011 61 0 1.0 4.0 0.00 0.00 0.00 77 1017.2
20260505124535 60 0 1.0 5.0 0.00 0.00 0.00 79 1017.2
20260505124011 59 265 0.0 5.0 0.00 0.00 0.00 80 1017.2
20260505123512 59 0 0.0 2.0 0.00 0.00 0.00 81 1017.3
20260505123036 58 0 0.0 3.0 0.00 0.00 0.00 81 1017.4
20260505122511 58 0 0.0 3.0 0.00 0.00 0.00 82 1017.3
20260505122016 57 155 0.0 4.0 0.00 0.00 0.00 82 1017.2
20260505121532 57 125 0.0 4.0 0.00 0.00 0.00 82 1017.4
20260505121013 56 150 0.0 4.0 0.00 0.00 0.00 82 1017.2
20260505120514 56 0 0.0 4.0 0.00 0.00 0.00 83 1017.2
20260505120029 56 0 0.0 4.0 0.00 0.00 0.00 83 1017.1
20260505115511 56 214 0.0 4.0 0.00 0.00 0.00 83 1017.0
20260505115014 55 0 0.0 2.0 0.00 0.00 0.00 83 1017.1
20260505114528 55 0 0.0 2.0 0.00 0.00 0.00 84 1017.1
20260505114013 55 0 0.0 2.0 0.00 0.00 0.00 84 1017.1
20260505113513 55 0 0.0 2.0 0.00 0.00 0.00 84 1017.2
20260505113027 55 0 0.0 2.0 0.00 0.00 0.00 84 1016.9
20260505112517 54 177 0.0 2.0 0.00 0.00 0.00 84 1017.0
20260505112012 54 0 0.0 1.0 0.00 0.00 0.00 84 1017.0
20260505111536 54 0 0.0 3.0 0.00 0.00 0.00 84 1016.8
20260505111011 54 0 0.0 3.0 0.00 0.00 0.00 84 1016.7
20260505110511 54 0 0.0 2.0 0.00 0.00 0.00 84 1016.7
20260505102010 54 0 0.0 1.0 0.00 0.00 0.00 83 1016.1
20260505101532 54 0 0.0 0.0 0.00 0.00 0.00 82 1016.1
20260505101010 54 0 0.0 0.0 0.00 0.00 0.00 82 1016.0
20260505100513 54 0 0.0 0.0 0.00 0.00 0.00 82 1015.9
20260505100031 55 0 0.0 0.0 0.00 0.00 0.00 82 1015.9
20260505095511 55 0 0.0 0.0 0.00 0.00 0.00 81 1015.9
20260505095012 55 0 0.0 1.0 0.00 0.00 0.00 81 1015.9
20260505094529 55 0 0.0 1.0 0.00 0.00 0.00 81 1015.8
20260505094012 55 0 0.0 1.0 0.00 0.00 0.00 81 1015.7
20260505093512 55 0 0.0 0.0 0.00 0.00 0.00 81 1015.6
20260505093028 55 0 0.0 0.0 0.00 0.00 0.00 80 1015.8
20260505092514 55 0 0.0 0.0 0.00 0.00 0.00 80 1015.7
20260505092011 56 0 0.0 1.0 0.00 0.00 0.00 80 1015.6
20260505091531 56 0 0.0 1.0 0.00 0.00 0.00 79 1015.6
20260505091011 56 0 0.0 1.0 0.00 0.00 0.00 79 1015.6
20260505090512 56 0 0.0 1.0 0.00 0.00 0.00 79 1015.7
20260505090036 56 0 0.0 3.0 0.00 0.00 0.00 79 1015.8
20260505085513 56 0 0.0 4.0 0.00 0.00 0.00 79 1015.7
20260505085013 56 0 0.0 4.0 0.00 0.00 0.00 78 1015.7
20260505084530 56 0 0.0 2.0 0.00 0.00 0.00 78 1015.5
20260505084016 57 0 0.0 2.0 0.00 0.00 0.00 79 1015.6
20260505083515 57 0 0.0 2.0 0.00 0.00 0.00 78 1015.5
20260505083031 57 0 0.0 3.0 0.00 0.00 0.00 78 1015.6
20260505082513 57 0 0.0 3.0 0.00 0.00 0.00 78 1015.7
20260505082015 57 0 0.0 3.0 0.00 0.00 0.00 77 1015.6
20260505081541 57 0 0.0 3.0 0.00 0.00 0.00 77 1015.5
20260505081013 57 0 0.0 2.0 0.00 0.00 0.00 77 1015.5
20260505080511 57 0 0.0 2.0 0.00 0.00 0.00 76 1015.5
20260505080033 57 0 0.0 3.0 0.00 0.00 0.00 77 1015.6
20260505075512 57 0 0.0 3.0 0.00 0.00 0.00 76 1015.4
20260505075016 57 163 0.0 3.0 0.00 0.00 0.00 77 1015.5
20260505074530 58 0 0.0 2.0 0.00 0.00 0.00 76 1015.4
20260505074012 58 0 0.0 2.0 0.00 0.00 0.00 76 1015.3
20260505073512 58 0 0.0 3.0 0.00 0.00 0.00 75 1015.4
20260505073041 58 0 0.0 3.0 0.00 0.00 0.00 75 1015.4
20260505072512 58 0 0.0 2.0 0.00 0.00 0.00 75 1015.4
20260505072012 58 0 0.0 2.0 0.00 0.00 0.00 75 1015.4
20260505071546 58 184 0.0 3.0 0.00 0.00 0.00 74 1015.2
20260505071011 59 166 0.0 3.0 0.00 0.00 0.00 74 1015.3
20260505070515 59 0 0.0 2.0 0.00 0.00 0.00 74 1015.3
20260505070029 59 168 0.0 2.0 0.00 0.00 0.00 73 1015.3
20260505065511 59 242 0.0 3.0 0.00 0.00 0.00 73 1015.3
20260505065012 59 0 0.0 3.0 0.00 0.00 0.00 73 1015.3
20260505064531 59 152 0.0 2.0 0.00 0.00 0.00 73 1015.3
20260505064014 59 0 0.0 3.0 0.00 0.00 0.00 72 1015.2
20260505063512 60 0 0.0 3.0 0.00 0.00 0.00 72 1015.3
20260505063030 60 178 0.0 5.0 0.00 0.00 0.00 72 1015.3
20260505062511 60 0 0.0 5.0 0.00 0.00 0.00 72 1015.2
20260505062011 60 0 0.0 5.0 0.00 0.00 0.00 71 1015.3
20260505061533 60 0 0.0 3.0 0.00 0.00 0.00 71 1015.3
20260505061017 61 0 0.0 4.0 0.00 0.00 0.00 70 1015.3
20260505060515 61 128 0.0 4.0 0.00 0.00 0.00 70 1015.4
20260505060030 61 0 0.0 3.0 0.00 0.00 0.00 70 1015.3
20260505055514 61 0 0.0 2.0 0.00 0.00 0.00 70 1015.3
20260505055014 61 190 0.0 3.0 0.00 0.00 0.00 70 1015.3
20260505054547 61 173 0.0 3.0 0.00 0.00 0.00 69 1015.2
20260505054012 61 175 0.0 3.0 0.00 0.00 0.00 69 1015.4
20260505053513 62 107 0.0 4.0 0.00 0.00 0.00 69 1015.5
20260505053038 62 150 1.0 4.0 0.00 0.00 0.00 69 1015.5
20260505052518 62 159 1.0 4.0 0.00 0.00 0.00 69 1015.5
20260505052010 62 182 1.0 7.0 0.00 0.00 0.00 69 1015.5
20260505051538 62 0 1.0 7.0 0.00 0.00 0.00 68 1015.6
20260505051015 62 266 1.0 7.0 0.00 0.00 0.00 68 1015.6
20260505050516 63 235 1.0 7.0 0.00 0.00 0.00 67 1015.6
20260505041530 63 142 1.0 8.0 0.00 0.00 0.00 66 1015.5
20260505041012 64 260 0.0 7.0 0.00 0.00 0.00 66 1015.3
20260505040510 64 187 0.0 7.0 0.00 0.00 0.00 65 1015.5
20260505040036 64 194 1.0 7.0 0.00 0.00 0.00 65 1015.5
20260505035513 64 0 1.0 7.0 0.00 0.00 0.00 65 1015.3
20260505035010 64 259 1.0 4.0 0.00 0.00 0.00 65 1015.4
20260505034528 64 155 1.0 4.0 0.00 0.00 0.00 65 1015.3
20260505034016 65 135 1.0 7.0 0.00 0.00 0.00 65 1015.4
20260505033513 65 170 1.0 7.0 0.00 0.00 0.00 65 1015.3
20260505033031 65 134 1.0 5.0 0.00 0.00 0.00 65 1015.2
20260505032511 65 102 1.0 6.0 0.00 0.00 0.00 64 1015.3
20260505032013 65 110 1.0 6.0 0.00 0.00 0.00 64 1015.3
20260505031530 66 198 1.0 6.0 0.00 0.00 0.00 64 1015.3
20260505031016 66 0 0.0 5.0 0.00 0.00 0.00 63 1015.2
20260505030515 66 180 1.0 5.0 0.00 0.00 0.00 63 1015.3
20260505030032 66 159 0.0 5.0 0.00 0.00 0.00 63 1015.2
20260505025512 66 261 1.0 5.0 0.00 0.00 0.00 62 1015.1
20260505025010 67 191 1.0 6.0 0.00 0.00 0.00 62 1015.1
20260505024530 67 0 1.0 6.0 0.00 0.00 0.00 61 1015.1
20260505024013 67 0 1.0 5.0 0.00 0.00 0.00 61 1015.2
20260505023512 67 247 0.0 8.0 0.00 0.00 0.00 60 1015.2
20260505023028 67 136 1.0 8.0 0.00 0.00 0.00 59 1015.1
20260505022513 67 184 3.0 9.0 0.00 0.00 0.00 59 1014.9
20260505022010 68 103 2.0 9.0 0.00 0.00 0.00 57 1014.9
20260505021529 68 260 2.0 8.0 0.00 0.00 0.00 55 1014.9
20260505021011 68 199 1.0 7.0 0.00 0.00 0.00 54 1014.9
20260505020512 68 176 1.0 8.0 0.00 0.00 0.00 54 1014.7
20260505020028 68 240 2.0 8.0 0.00 0.00 0.00 53 1014.7
20260505015513 68 336 1.0 6.0 0.00 0.00 0.00 51 1014.5
20260505015012 68 199 1.0 6.0 0.00 0.00 0.00 50 1014.6
20260505014528 68 0 0.0 2.0 0.00 0.00 0.00 50 1014.4
20260505014013 68 0 0.0 2.0 0.00 0.00 0.00 49 1014.4
20260505013510 68 0 0.0 5.0 0.00 0.00 0.00 49 1014.5
20260505013033 68 0 0.0 5.0 0.00 0.00 0.00 48 1014.4
20260505012513 69 135 0.0 4.0 0.00 0.00 0.00 48 1014.3
20260505012013 69 0 0.0 4.0 0.00 0.00 0.00 48 1014.3
20260505011528 69 186 0.0 3.0 0.00 0.00 0.00 48 1014.1
20260505011010 69 0 0.0 2.0 0.00 0.00 0.00 48 1014.1
20260505010510 69 0 0.0 2.0 0.00 0.00 0.00 47 1014.1
20260505010030 70 0 0.0 2.0 0.00 0.00 0.00 46 1014.0
20260505005510 70 0 0.0 2.0 0.00 0.00 0.00 46 1014.0
20260505005014 70 0 0.0 1.0 0.00 0.00 0.00 45 1014.0
20260505004528 71 0 0.0 1.0 0.00 0.00 0.00 45 1013.9
20260505004012 71 0 0.0 3.0 0.00 0.00 0.00 45 1013.8
20260505003513 71 126 0.0 3.0 0.00 0.00 0.00 44 1013.8
20260505003028 71 0 0.0 3.0 0.00 0.00 0.00 43 1013.8
20260505002514 72 133 0.0 3.0 0.00 0.00 0.00 43 1013.8
20260505002013 72 0 0.0 4.0 0.00 0.00 0.00 43 1013.7
20260505001531 72 0 0.0 4.0 0.00 0.00 0.00 43 1013.6
20260505001014 73 0 0.0 4.0 0.00 0.00 0.00 42 1013.5
20260505000514 73 0 0.0 4.0 0.00 0.00 0.00 41 1013.5
20260505000029 73 0 0.0 4.0 0.00 0.00 0.00 40 1013.5
20260504235510 74 0 0.0 4.0 0.00 0.00 0.00 40 1013.5
20260504235010 74 281 1.0 8.0 0.00 0.00 0.00 39 1013.4
20260504234528 74 180 1.0 8.0 0.00 0.00 0.00 38 1013.3
20260504234013 75 150 1.0 4.0 0.00 0.00 0.00 37 1013.3
20260504233513 75 0 1.0 4.0 0.00 0.00 0.00 36 1013.3
20260504233030 75 0 0.0 4.0 0.00 0.00 0.00 35 1013.3
20260504232513 76 285 0.0 4.0 0.00 0.00 0.00 35 1013.0
20260504232015 76 240 1.0 4.0 0.00 0.00 0.00 34 1013.1
20260504231529 76 0 1.0 5.0 0.00 0.00 0.00 35 1013.2
20260504231009 77 0 1.0 5.0 0.00 0.00 0.00 34 1013.1
20260504230512 77 158 0.0 6.0 0.00 0.00 0.00 33 1013.1
20260504230032 77 0 1.0 6.0 0.00 0.00 0.00 32 1013.2
20260504225516 77 262 1.0 6.0 0.00 0.00 0.00 33 1013.1
20260504225010 78 149 2.0 6.0 0.00 0.00 0.00 33 1013.1
20260504224530 78 149 0.0 5.0 0.00 0.00 0.00 34 1013.2
20260504224013 78 162 1.0 7.0 0.00 0.00 0.00 34 1013.1
20260504223510 78 273 1.0 7.0 0.00 0.00 0.00 32 1013.2
20260504223030 79 159 1.0 7.0 0.00 0.00 0.00 32 1013.1
20260504222511 79 286 1.0 8.0 0.00 0.00 0.00 34 1013.2
20260504222011 79 273 2.0 8.0 0.00 0.00 0.00 32 1013.3
20260504221529 79 218 2.0 6.0 0.00 0.00 0.00 33 1013.2
20260504221011 79 0 1.0 6.0 0.00 0.00 0.00 33 1013.2
20260504220511 79 274 0.0 8.0 0.00 0.00 0.00 33 1013.2
20260504220030 79 127 1.0 8.0 0.00 0.00 0.00 36 1013.3
20260504215510 79 158 1.0 6.0 0.00 0.00 0.00 33 1013.4
20260504215012 79 94 1.0 6.0 0.00 0.00 0.00 34 1013.3
20260504214530 79 65 1.0 6.0 0.00 0.00 0.00 33 1013.3
20260504214011 80 115 0.0 6.0 0.00 0.00 0.00 34 1013.4
20260504213511 79 11 1.0 7.0 0.00 0.00 0.00 39 1013.4
20260504213029 79 261 1.0 7.0 0.00 0.00 0.00 35 1013.5
20260504212512 79 257 1.0 7.0 0.00 0.00 0.00 35 1013.4
20260504212010 79 250 1.0 6.0 0.00 0.00 0.00 34 1013.4
20260504211529 79 306 2.0 6.0 0.00 0.00 0.00 33 1013.4
20260504211012 79 216 1.0 6.0 0.00 0.00 0.00 33 1013.4
20260504210510 79 151 1.0 7.0 0.00 0.00 0.00 34 1013.4
20260504210029 79 145 2.0 7.0 0.00 0.00 0.00 33 1013.4
20260504205510 79 140 2.0 7.0 0.00 0.00 0.00 33 1013.5
20260504205010 79 251 1.0 7.0 0.00 0.00 0.00 33 1013.2
20260504204529 79 273 2.0 6.0 0.00 0.00 0.00 33 1013.4
20260504204012 79 122 1.0 8.0 0.00 0.00 0.00 35 1013.4
20260504203512 80 194 1.0 8.0 0.00 0.00 0.00 35 1013.5
20260504203032 79 248 1.0 8.0 0.00 0.00 0.00 33 1013.6
20260504202511 79 288 1.0 8.0 0.00 0.00 0.00 37 1013.7
20260504202012 79 271 2.0 8.0 0.00 0.00 0.00 32 1013.5
20260504201530 79 0 1.0 6.0 0.00 0.00 0.00 33 1013.6
20260504201013 79 313 2.0 7.0 0.00 0.00 0.00 34 1013.6
20260504200514 79 95 1.0 7.0 0.00 0.00 0.00 33 1013.7
20260504200038 79 279 2.0 7.0 0.00 0.00 0.00 33 1013.8
20260504195516 79 259 2.0 9.0 0.00 0.00 0.00 35 1013.7
20260504195014 79 218 1.0 9.0 0.00 0.00 0.00 35 1013.9
20260504194527 78 0 3.0 9.0 0.00 0.00 0.00 33 1014.0
20260504194014 78 281 2.0 8.0 0.00 0.00 0.00 38 1014.0
20260504193510 78 22 1.0 9.0 0.00 0.00 0.00 34 1014.1
20260504193029 78 53 2.0 9.0 0.00 0.00 0.00 37 1014.2
20260504192512 77 309 1.0 7.0 0.00 0.00 0.00 39 1014.1
20260504192009 76 169 1.0 7.0 0.00 0.00 0.00 36 1014.1
20260504191546 77 127 2.0 7.0 0.00 0.00 0.00 36 1014.1
20260504191012 77 244 2.0 10.0 0.00 0.00 0.00 37 1014.1
20260504190513 77 243 2.0 10.0 0.00 0.00 0.00 36 1014.2
20260504190032 77 307 1.0 10.0 0.00 0.00 0.00 35 1014.4
20260504185511 77 34 1.0 10.0 0.00 0.00 0.00 36 1014.4
20260504185012 77 254 1.0 6.0 0.00 0.00 0.00 38 1014.5
20260504184533 77 0 1.0 7.0 0.00 0.00 0.00 38 1014.7
20260504184011 77 0 2.0 8.0 0.00 0.00 0.00 34 1014.8
20260504183512 77 270 2.0 8.0 0.00 0.00 0.00 35 1014.6
20260504183038 76 309 1.0 9.0 0.00 0.00 0.00 40 1014.7
20260504182509 76 123 1.0 9.0 0.00 0.00 0.00 36 1014.7
20260504182013 75 303 2.0 9.0 0.00 0.00 0.00 36 1015.1
20260504181531 75 265 2.0 9.0 0.00 0.00 0.00 38 1014.9
20260504181013 76 265 2.0 9.0 0.00 0.00 0.00 35 1014.9
20260504180516 76 196 1.0 6.0 0.00 0.00 0.00 38 1015.0
20260504180033 76 173 1.0 8.0 0.00 0.00 0.00 36 1015.1
20260504175513 75 146 2.0 8.0 0.00 0.00 0.00 36 1015.0
20260504175010 75 132 2.0 8.0 0.00 0.00 0.00 36 1015.2
20260504174530 75 117 1.0 7.0 0.00 0.00 0.00 37 1015.1
20260504174013 75 165 1.0 7.0 0.00 0.00 0.00 37 1015.1
20260504173513 75 96 1.0 7.0 0.00 0.00 0.00 38 1015.1
20260504173030 74 236 2.0 9.0 0.00 0.00 0.00 36 1015.2
20260504172512 75 265 3.0 10.0 0.00 0.00 0.00 36 1015.3
20260504172015 74 308 2.0 10.0 0.00 0.00 0.00 36 1015.2
20260504171528 74 242 2.0 9.0 0.00 0.00 0.00 43 1015.2
20260504171017 74 265 1.0 9.0 0.00 0.00 0.00 40 1015.4
20260504170513 73 345 4.0 9.0 0.00 0.00 0.00 39 1015.5